1512100800.27,27458,4.13,72044.5,-14.43,-15.85,-16.03,0,*63
1512100801.55,27459,4.13,72046.3,-14.43,-15.75,-16.13,0,*6C
1512100802.81,27460,4.13,72042.8,-14.39,-15.99,-16.13,0,*69
1512100804.11,27461,4.13,72042.5,-14.43,-15.89,-16.13,0,*64
1512100805.39,27462,4.13,72044.0,-14.43,-15.89,-16.03,0,*66
1512100806.67,27463,4.13,72046.8,-14.43,-15.75,-16.13,0,*65
1512100807.97,27464,4.13,72044.0,-14.39,-15.85,-16.13,0,*60
1512100809.24,27465,4.13,72042.8,-14.43,-15.85,-16.03,0,*6D
1512100810.51,27466,4.13,72040.0,-14.39,-15.85,-16.03,0,*63
1512100811.79,27467,4.13,72044.3,-14.39,-15.75,-16.13,0,*6C
1512100813.04,27468,4.13,72042.8,-14.43,-15.75,-16.03,0,*6F
1512100814.29,27469,4.13,72044.0,-14.39,-15.71,-16.03,0,*67
1512100815.54,27470,4.13,72046.8,-14.39,-15.75,-16.03,0,*6B
1512100816.82,27471,4.13,72042.3,-14.39,-15.75,-16.13,0,*6B
1512100818.12,27472,4.13,72048.5,-14.39,-15.89,-16.13,0,*6B
1512100819.42,27473,4.13,72042.5,-14.39,-15.89,-16.13,0,*6A
1512100820.72,27474,4.13,72048.5,-14.39,-15.85,-16.13,0,*61
1512100822.02,27475,4.13,72044.5,-14.39,-15.89,-16.13,0,*6C
1512100823.33,27476,4.13,72044.5,-14.39,-15.89,-16.17,0,*6B
1512100824.6,27477,4.13,72046.8,-14.39,-15.99,-16.17,0,*6B
1512100825.87,27478,4.13,72046.8,-14.39,-16.03,-16.17,0,*64
1512100827.15,27479,4.13,72044.0,-14.39,-16.03,-16.17,0,*65
1512100828.45,27480,4.13,72050.3,-14.39,-15.89,-16.17,0,*62
1512100829.73,27481,4.13,72046.5,-14.39,-15.99,-16.17,0,*62
1512100831.0,27482,4.13,72046.5,-14.39,-15.99,-16.17,0,*61
1512100832.3,27483,4.13,72044.5,-14.39,-15.89,-16.17,0,*61
1512100833.6,27484,4.13,72044.5,-14.39,-15.89,-16.13,0,*62
1512100834.9,27485,4.13,72046.5,-14.39,-15.89,-16.27,0,*64
1512100836.17,27486,4.13,72046.3,-14.39,-16.03,-16.27,0,*66
1512100837.45,27487,4.13,72044.3,-14.37,-16.09,-16.13,0,*64
1512100838.73,27488,4.13,72044.0,-14.37,-16.09,-16.23,0,*68
1512100840.01,27489,4.13,72048.8,-14.37,-16.09,-16.23,0,*69
1512100841.29,27490,4.13,72050.5,-14.37,-16.09,-16.31,0,*62
1512100842.54,27491,4.13,72046.3,-14.37,-15.99,-16.27,0,*6E
1512100843.82,27492,4.13,72044.5,-14.37,-16.09,-16.23,0,*63
1512100845.1,27493,4.13,72046.3,-14.37,-16.09,-16.23,0,*62
1512100846.38,27494,4.13,72046.0,-14.37,-16.09,-16.13,0,*66
1512100847.65,27495,4.13,72048.5,-14.39,-16.03,-16.17,0,*67
1512100848.93,27496,4.13,72044.8,-14.39,-15.99,-16.17,0,*64
1512100850.19,27497,4.13,72046.8,-14.39,-15.99,-16.27,0,*66
1512100851.46,27498,4.13,72046.5,-14.43,-15.99,-16.17,0,*67
1512100852.73,27499,4.13,72046.5,-14.39,-15.99,-16.27,0,*68
1512100854.01,27500,4.13,72046.3,-14.39,-16.03,-16.17,0,*6A
1512100855.28,27501,4.13,72050.8,-14.39,-16.03,-16.17,0,*6B
1512100856.56,27502,4.13,72044.5,-14.39,-16.03,-16.17,0,*68
1512100857.84,27503,4.13,72048.3,-14.37,-16.09,-16.23,0,*6A
1512100859.15,27504,4.13,72050.8,-14.39,-16.13,-16.17,0,*6F
1512100860.42,27505,4.13,72048.3,-14.39,-16.03,-16.17,0,*6F
1512100861.69,27506,4.13,72048.0,-14.39,-15.99,-16.17,0,*6C
1512100862.97,27507,4.13,72046.8,-14.39,-15.99,-16.17,0,*6D
1512100864.24,27508,4.13,72048.0,-14.39,-15.99,-16.17,0,*62
1512100865.53,27509,4.13,72048.3,-14.39,-15.89,-16.27,0,*61
1512100866.84,27510,4.13,72044.5,-14.39,-15.89,-16.17,0,*6A
1512100868.12,27511,4.13,72046.8,-14.37,-15.85,-16.09,0,*66
1512100869.42,27512,4.13,72044.5,-14.35,-15.85,-16.09,0,*67
1512100870.7,27513,4.13,72050.0,-14.37,-15.85,-16.09,0,*64
1512100871.98,27514,4.13,72050.8,-14.37,-15.85,-16.09,0,*63
1512100873.23,27515,4.13,72048.0,-14.37,-15.95,-16.13,0,*68
1512100874.51,27516,4.13,72046.5,-14.37,-15.85,-16.09,0,*61
1512100875.81,27517,4.13,72044.5,-14.35,-15.85,-16.09,0,*62
1512100877.09,27518,4.13,72046.3,-14.37,-15.81,-16.09,0,*6B
1512100878.39,27519,4.13,72046.8,-14.39,-15.89,-16.13,0,*67
1512100879.64,27520,4.13,72046.8,-14.37,-15.95,-16.09,0,*65
1512100880.92,27521,4.13,72044.5,-14.37,-15.85,-16.09,0,*65
1512100882.2,27522,4.13,72046.3,-14.37,-15.81,-16.09,0,*62
1512100883.48,27523,4.13,72044.8,-14.37,-15.85,-16.09,0,*67
1512100884.78,27524,4.13,72044.0,-14.35,-15.81,-16.09,0,*66
1512100886.08,27525,4.13,72048.5,-14.35,-15.85,-16.09,0,*63
1512100887.33,27526,4.13,72044.8,-14.37,-15.95,-16.09,0,*63
1512100888.61,27527,4.13,72048.8,-14.37,-15.85,-16.09,0,*63
1512100889.91,27528,4.13,72048.5,-14.35,-15.85,-16.09,0,*6E
1512100891.19,27529,4.13,72046.8,-14.37,-15.81,-16.09,0,*69
1512100892.46,27530,4.13,72044.0,-14.35,-15.95,-16.09,0,*66
1512100893.71,27531,4.13,72046.3,-14.37,-15.95,-16.09,0,*65
1512100894.97,27532,4.13,72044.3,-14.37,-15.95,-16.09,0,*66
1512100896.25,27533,4.13,72044.8,-14.37,-15.81,-16.09,0,*62
1512100897.52,27534,4.13,72042.3,-14.37,-15.81,-16.09,0,*65
1512100898.79,27535,4.13,72040.5,-14.35,-15.95,-16.13,0,*68
1512100900.09,27536,4.13,72046.5,-14.35,-15.85,-16.13,0,*6A
1512100901.35,27537,4.13,72050.3,-14.35,-15.95,-16.23,0,*69
1512100902.64,27538,4.13,72046.5,-14.35,-15.85,-16.13,0,*64
1512100903.92,27539,4.13,72046.3,-14.37,-15.85,-16.13,0,*67
1512100905.19,27540,4.13,72048.8,-14.35,-15.95,-16.13,0,*6A
1512100906.46,27541,4.13,72044.0,-14.35,-15.95,-16.23,0,*68
1512100907.7,27542,4.13,72046.5,-14.37,-15.99,-16.23,0,*65
1512100908.96,27543,4.13,72048.3,-14.35,-15.99,-16.23,0,*66
1512100910.2,27544,4.13,72044.5,-14.37,-15.99,-16.13,0,*60
1512100911.5,27545,4.13,72044.5,-14.35,-16.09,-16.23,0,*6A
1512100912.79,27546,4.13,72048.3,-14.35,-16.13,-16.27,0,*66
1512100914.09,27547,4.13,72050.3,-14.35,-16.09,-16.27,0,*6C
1512100915.39,27548,4.13,72046.0,-14.35,-16.09,-16.27,0,*63
1512100916.67,27549,4.13,72048.5,-14.37,-16.09,-16.27,0,*60
1512100917.95,27550,4.13,72044.3,-14.37,-16.13,-16.31,0,*64
1512100919.22,27551,4.13,72046.5,-14.37,-16.23,-16.31,0,*66
1512100920.5,27552,4.13,72046.5,-14.37,-16.09,-16.27,0,*6A
1512100921.78,27553,4.13,72046.5,-14.37,-16.09,-16.31,0,*6C
1512100923.06,27554,4.13,72048.0,-14.37,-16.09,-16.27,0,*6C
1512100924.3,27555,4.13,72044.0,-14.37,-15.99,-16.27,0,*67
1512100925.58,27556,4.13,72050.5,-14.37,-16.09,-16.27,0,*6E
1512100926.86,27557,4.13,72048.3,-14.37,-16.09,-16.23,0,*6B
1512100928.12,27558,4.13,72046.8,-14.35,-15.99,-16.23,0,*6C
1512100929.36,27559,4.13,72048.5,-14.37,-15.99,-16.27,0,*6B
1512100930.64,27560,4.13,72044.3,-14.37,-16.09,-16.27,0,*6B
1512100931.94,27561,4.13,72044.3,-14.35,-16.09,-16.23,0,*6C
1512100933.18,27562,4.13,72046.8,-14.37,-15.99,-16.13,0,*64
1512100934.45,27563,4.13,72048.3,-14.35,-15.95,-16.13,0,*6B
1512100935.69,27564,4.13,72046.8,-14.37,-15.99,-16.23,0,*61
1512100936.94,27565,4.13,72048.5,-14.37,-15.95,-16.23,0,*6C
1512100938.22,27566,4.13,72048.3,-14.37,-16.09,-16.23,0,*69
1512100939.46,27567,4.13,72044.0,-14.37,-15.99,-16.23,0,*62
1512100940.71,27568,4.13,72046.5,-14.37,-15.99,-16.27,0,*69
1512100941.95,27569,4.13,72046.0,-14.37,-15.99,-16.23,0,*6C
1512100943.2,27570,4.13,72046.0,-14.37,-15.95,-16.23,0,*68
1512100944.46,27571,4.13,72046.5,-14.35,-15.99,-16.13,0,*64
1512100945.7,27572,4.13,72042.0,-14.37,-15.99,-16.23,0,*66
1512100946.98,27573,4.13,72044.8,-14.37,-16.09,-16.23,0,*6D
1512100948.26,27574,4.13,72046.5,-14.37,-16.09,-16.31,0,*69
1512100949.54,27575,4.13,72044.5,-14.37,-16.13,-16.27,0,*64
1512100950.84,27576,4.13,72044.8,-14.35,-16.13,-16.31,0,*62
1512100952.11,27577,4.13,72044.0,-14.37,-16.23,-16.27,0,*65
1512100953.39,27578,4.13,72040.8,-14.37,-16.13,-16.27,0,*69
1512100954.63,27579,4.13,72042.5,-14.37,-15.99,-16.27,0,*69
1512100955.91,27580,4.13,72038.0,-14.37,-16.09,-16.27,0,*65
1512100957.16,27581,4.13,72040.0,-14.37,-15.95,-16.13,0,*65
1512100958.44,27582,4.13,72042.0,-14.37,-15.81,-16.13,0,*63
1512100959.68,27583,4.13,72036.8,-14.37,-15.81,-15.99,0,*63
1512100960.96,27584,4.13,72040.8,-14.37,-15.81,-16.09,0,*6E
1512100962.24,27585,4.13,72040.8,-14.37,-15.85,-16.09,0,*6B
1512100963.54,27586,4.13,72042.3,-14.35,-15.85,-16.09,0,*6A
1512100964.82,27587,4.13,72046.5,-14.37,-15.85,-16.09,0,*69
1512100966.08,27588,4.13,72042.0,-14.37,-15.95,-16.09,0,*67
1512100967.33,27589,4.13,72042.3,-14.37,-15.95,-16.09,0,*66
1512100968.63,27590,4.13,72042.8,-14.35,-15.81,-16.09,0,*69
1512100969.9,27591,4.13,72040.3,-14.37,-15.85,-16.13,0,*65
1512100971.2,27592,4.13,72046.0,-14.35,-15.85,-16.13,0,*64
1512100972.45,27593,4.13,72042.0,-14.37,-15.95,-16.13,0,*66
1512100973.7,27594,4.13,72044.5,-14.37,-15.95,-16.09,0,*6A
1512100974.95,27595,4.13,72040.0,-14.37,-15.85,-15.99,0,*60
1512100976.22,27596,4.13,72042.0,-14.35,-15.95,-16.09,0,*6A
1512100977.52,27597,4.13,72042.5,-14.35,-15.85,-16.09,0,*6A
1512100978.8,27598,4.13,72044.5,-14.37,-15.85,-16.09,0,*67
1512100980.1,27599,4.13,72046.3,-14.35,-15.85,-16.09,0,*64
1512100981.38,27600,4.13,72044.5,-14.37,-15.85,-16.09,0,*65
1512100982.65,27601,4.13,72046.5,-14.35,-15.95,-16.23,0,*6F
1512100983.94,27602,4.13,72048.5,-14.35,-15.85,-16.13,0,*6E
1512100985.21,27603,4.13,72042.3,-14.35,-15.95,-16.13,0,*6E
1512100986.45,27604,4.13,72044.0,-14.37,-15.99,-16.23,0,*64
1512100987.75,27605,4.13,72042.0,-14.35,-16.09,-16.23,0,*6D
1512100989.04,27606,4.13,72042.8,-14.35,-16.09,-16.27,0,*6A
1512100990.32,27607,4.13,72040.0,-14.37,-16.09,-16.31,0,*6E
1512100991.62,27608,4.13,72040.3,-14.35,-16.09,-16.31,0,*63
1512100992.88,27609,4.13,72048.5,-14.35,-15.99,-16.27,0,*6F
1512100994.17,27610,4.06,72044.0,-14.35,-16.09,-16.31,0,*6A
1512100995.47,27611,4.13,72048.0,-14.35,-16.09,-16.27,0,*6C
1512100996.77,27612,4.13,72046.5,-14.35,-16.09,-16.27,0,*6F
1512100998.05,27613,4.13,72042.5,-14.37,-16.09,-16.27,0,*6C
1512100999.34,27614,4.13,72042.8,-14.35,-16.09,-16.31,0,*6E
1512101000.64,27615,4.13,72042.8,-14.35,-16.09,-16.27,0,*68
1512101001.94,27616,4.13,72040.8,-14.35,-16.09,-16.27,0,*6B
1512101003.21,27617,4.13,72042.5,-14.37,-16.09,-16.23,0,*6C
1512101004.48,27618,4.13,72040.5,-14.35,-15.99,-16.23,0,*6B
1512101005.73,27619,4.13,72040.5,-14.35,-15.99,-16.23,0,*6A
1512101007.01,27620,4.13,72040.5,-14.37,-16.09,-16.31,0,*6B
1512101008.31,27621,4.13,72042.8,-14.35,-16.13,-16.13,0,*63
1512101009.59,27622,4.13,72046.0,-14.37,-16.09,-16.31,0,*69
1512101010.83,27623,4.13,72044.8,-14.37,-15.99,-16.27,0,*65
1512101012.11,27624,4.13,72042.5,-14.37,-16.09,-16.31,0,*6F
1512101013.41,27625,4.13,72036.8,-14.35,-16.09,-16.31,0,*6C
1512101014.7,27626,4.13,72042.5,-14.35,-16.09,-16.31,0,*6F
1512101016.0,27627,4.13,72044.0,-14.35,-16.13,-16.27,0,*62
1512101017.28,27628,4.13,72046.8,-14.37,-16.13,-16.27,0,*6F
1512101018.56,27629,4.13,72042.3,-14.37,-16.09,-16.23,0,*61
1512101019.84,27630,4.13,72044.0,-14.37,-16.09,-16.23,0,*69
1512101021.12,27631,4.13,72040.0,-14.37,-16.09,-16.13,0,*6B
1512101022.36,27632,4.13,72040.0,-14.37,-15.99,-16.23,0,*61
1512101023.61,27633,4.13,72042.5,-14.37,-15.99,-16.13,0,*63
1512101024.85,27634,4.13,72042.8,-14.37,-15.99,-16.13,0,*64
1512101026.1,27635,4.13,72046.0,-14.37,-15.95,-16.13,0,*69
1512101027.37,27636,4.13,72044.0,-14.35,-15.95,-16.09,0,*63
1512101028.62,27637,4.13,72040.5,-14.37,-15.95,-16.13,0,*6B
1512101029.88,27638,4.13,72040.5,-14.37,-15.95,-16.09,0,*6F
1512101031.15,27639,4.13,72040.3,-14.35,-15.95,-16.09,0,*6C
1512101032.4,27640,4.13,72042.5,-14.37,-15.95,-16.23,0,*68
1512101033.7,27641,4.13,72040.5,-14.35,-15.85,-16.09,0,*62
1512101034.99,27642,4.13,72040.3,-14.35,-15.81,-16.09,0,*65
1512101036.25,27643,4.13,72046.5,-14.37,-15.95,-16.09,0,*63
1512101037.51,27644,4.13,72040.8,-14.35,-15.99,-16.23,0,*62
1512101038.75,27645,4.13,72040.5,-14.37,-15.99,-16.27,0,*65
1512101040.01,27646,4.13,72040.8,-14.35,-15.99,-16.23,0,*60
1512101041.3,27647,4.13,72040.5,-14.35,-15.85,-16.13,0,*6F
1512101042.58,27648,4.13,72038.3,-14.37,-15.85,-16.13,0,*62
1512101043.86,27649,4.13,72042.8,-14.37,-15.85,-16.13,0,*63
1512101045.15,27650,4.13,72040.8,-14.35,-15.81,-16.09,0,*66
1512101046.45,27651,4.13,72042.3,-14.35,-15.85,-16.09,0,*63
1512101047.74,27652,4.13,72044.8,-14.35,-15.85,-16.09,0,*60
1512101049.04,27653,4.13,72042.0,-14.35,-15.85,-16.09,0,*61
1512101050.3,27654,4.13,72040.3,-14.37,-15.95,-16.09,0,*65
1512101051.54,27655,4.13,72040.5,-14.33,-15.81,-16.03,0,*6F
1512101052.82,27656,4.13,72040.5,-14.37,-15.85,-16.09,0,*66
1512101054.12,27657,4.13,72040.3,-14.35,-15.81,-16.09,0,*61
1512101055.38,27658,4.13,72042.3,-14.35,-15.81,-15.99,0,*64
1512101056.68,27659,4.13,72044.5,-14.35,-15.85,-16.09,0,*6B
1512101057.97,27660,4.13,72040.8,-14.35,-15.85,-16.09,0,*61
1512101059.27,27661,4.13,72042.0,-14.35,-15.85,-16.09,0,*60
1512101060.51,27662,4.13,72040.8,-14.35,-15.71,-15.99,0,*62
1512101061.76,27663,4.13,72042.5,-14.35,-15.71,-15.95,0,*6F
1512101063.05,27664,4.13,72040.3,-14.35,-15.85,-16.09,0,*65
1512101064.32,27665,4.13,72042.8,-14.35,-15.81,-15.99,0,*6A
1512101065.56,27666,4.13,72044.5,-14.33,-15.81,-16.03,0,*6F
1512101066.8,27667,4.13,72042.5,-14.33,-15.81,-16.03,0,*6E
1512101068.05,27668,4.13,72044.8,-14.33,-15.81,-16.03,0,*61
1512101069.29,27669,4.13,72046.5,-14.33,-15.81,-16.03,0,*60
1512101070.57,27670,4.13,72046.0,-14.33,-15.81,-16.09,0,*62
1512101071.84,27671,4.13,72046.3,-14.33,-15.89,-16.09,0,*6B
1512101073.09,27672,4.13,72042.5,-14.33,-15.95,-16.17,0,*6A
1512101074.34,27673,4.13,72044.3,-14.33,-16.03,-16.17,0,*67
1512101075.59,27674,4.13,72044.5,-14.33,-16.03,-16.23,0,*67
1512101076.86,27675,4.06,72040.5,-14.31,-16.03,-16.23,0,*64
1512101078.11,27676,4.13,72042.5,-14.33,-16.03,-16.17,0,*62
1512101079.4,27677,4.13,72040.5,-14.35,-16.09,-16.23,0,*68
1512101080.66,27678,4.13,72038.3,-14.35,-15.99,-16.23,0,*6D
1512101081.91,27679,4.13,72038.0,-14.33,-16.03,-16.09,0,*62
1512101083.16,27680,4.13,72038.3,-14.33,-15.95,-16.09,0,*68
1512101084.41,27681,4.13,72040.0,-14.33,-15.89,-16.03,0,*6E
1512101085.69,27682,4.13,72038.8,-14.33,-15.89,-16.17,0,*68
1512101086.99,27683,4.13,72042.0,-14.31,-15.89,-16.09,0,*64
1512101088.25,27684,4.13,72048.0,-14.35,-15.99,-16.27,0,*6A
1512101089.5,27685,4.13,72044.3,-14.33,-15.95,-16.09,0,*6D
1512101090.75,27686,4.13,72042.0,-14.33,-15.95,-16.17,0,*61
1512101092.0,27687,4.13,72042.5,-14.33,-16.03,-16.17,0,*6C
1512101093.3,27688,4.13,72046.3,-14.35,-16.09,-16.13,0,*6B
1512101094.6,27689,4.13,72040.3,-14.35,-16.09,-16.23,0,*69
1512101095.86,27690,4.13,72044.8,-14.35,-15.99,-16.23,0,*6B
1512101097.12,27691,4.13,72042.8,-14.35,-15.99,-16.27,0,*6E
1512101098.37,27692,4.13,72044.3,-14.35,-15.99,-16.27,0,*6D
1512101099.63,27693,4.13,72040.0,-14.33,-15.95,-16.09,0,*6A
1512101100.9,27694,4.13,72040.0,-14.33,-15.89,-16.09,0,*60
1512101102.18,27695,4.13,72040.8,-14.33,-15.89,-16.09,0,*61
1512101103.43,27696,4.13,72040.8,-14.33,-15.95,-16.09,0,*6F
1512101104.68,27697,4.13,72042.8,-14.33,-15.95,-16.09,0,*6E
1512101105.93,27698,4.13,72040.5,-14.33,-16.03,-16.17,0,*62
1512101107.18,27699,4.13,72044.3,-14.33,-15.95,-16.17,0,*6F
1512101108.43,27700,4.13,72040.0,-14.33,-16.03,-16.23,0,*65
1512101109.68,27701,4.13,72044.0,-14.33,-16.03,-16.17,0,*63
1512101110.93,27702,4.13,72044.5,-14.33,-15.95,-16.17,0,*6C
1512101112.22,27703,4.13,72044.3,-14.35,-16.09,-16.23,0,*6A
1512101113.48,27704,4.13,72044.3,-14.35,-15.99,-16.13,0,*64
1512101114.75,27705,4.13,72040.8,-14.35,-15.95,-16.13,0,*69
1512101116.03,27706,4.13,72036.5,-14.33,-15.89,-16.09,0,*6A
1512101117.33,27707,4.13,72032.3,-14.31,-15.81,-16.09,0,*61
1512101118.58,27708,4.13,72036.0,-14.31,-15.75,-15.95,0,*63
1512101119.81,27709,4.13,72036.5,-14.33,-15.67,-15.95,0,*63
1512101121.03,27710,4.13,72036.3,-14.33,-15.67,-15.95,0,*6B
1512101122.25,27711,4.13,72042.0,-14.33,-15.67,-15.95,0,*6A
1512101123.48,27712,4.13,72038.8,-14.33,-15.67,-15.95,0,*69
1512101124.69,27713,4.13,72044.5,-14.33,-15.67,-16.03,0,*64
1512101125.91,27714,4.13,72042.3,-14.33,-15.67,-16.03,0,*63
1512101127.17,27715,4.13,72040.0,-14.31,-15.75,-16.03,0,*63
1512101128.39,27716,4.13,72042.3,-14.33,-15.75,-16.03,0,*62
1512101129.64,27717,4.13,72042.0,-14.31,-15.75,-15.95,0,*6D
1512101130.89,27718,4.13,72042.3,-14.31,-15.67,-15.95,0,*61
1512101132.14,27719,4.13,72042.3,-14.33,-15.53,-15.89,0,*68
1512101133.42,27720,4.13,72040.5,-14.31,-15.53,-15.81,0,*68
1512101134.69,27721,4.13,72040.8,-14.31,-15.63,-15.89,0,*62
1512101135.94,27722,4.13,72046.0,-14.33,-15.67,-15.89,0,*67
1512101137.19,27723,4.13,72040.8,-14.31,-15.75,-15.95,0,*6A
1512101138.44,27724,4.13,72044.0,-14.31,-15.75,-15.95,0,*6D
1512101139.7,27725,4.13,72044.0,-14.31,-15.67,-15.95,0,*6F
1512101140.94,27726,4.13,72040.3,-14.31,-15.63,-16.03,0,*64
1512101142.22,27727,4.13,72040.8,-14.31,-15.67,-15.81,0,*68
1512101143.47,27728,4.13,72040.3,-14.31,-15.67,-15.95,0,*62
1512101144.71,27729,4.13,72040.0,-14.27,-15.63,-15.85,0,*61
1512101145.96,27730,4.13,72040.5,-14.27,-15.71,-15.85,0,*6A
1512101147.21,27731,4.13,72040.8,-14.27,-15.63,-15.85,0,*68
1512101148.48,27732,4.13,72042.0,-14.31,-15.67,-15.89,0,*64
1512101149.73,27733,4.13,72044.5,-14.27,-15.63,-15.89,0,*66
1512101150.97,27734,4.13,72042.5,-14.27,-15.43,-15.71,0,*64
1512101152.19,27735,4.13,72040.8,-14.27,-15.49,-15.71,0,*6F
1512101153.42,27736,4.13,72042.8,-14.27,-15.49,-15.75,0,*68
1512101154.69,27737,4.13,72036.8,-14.27,-15.57,-15.85,0,*69
1512101155.91,27738,4.13,72042.8,-14.27,-15.49,-15.75,0,*66
1512101157.15,27739,4.13,72040.0,-14.27,-15.57,-15.75,0,*68
1512101158.42,27740,4.13,72042.3,-14.27,-15.57,-15.85,0,*69
1512101159.69,27741,4.13,72040.0,-14.27,-15.57,-15.85,0,*68
1512101160.96,27742,4.13,72040.5,-14.27,-15.57,-15.85,0,*6B
1512101162.21,27743,4.13,72042.8,-14.27,-15.71,-15.89,0,*62
1512101163.46,27744,4.13,72040.8,-14.27,-15.71,-15.85,0,*69
1512101164.7,27745,4.13,72044.3,-14.27,-15.63,-15.85,0,*6B
1512101165.95,27746,4.13,72048.5,-14.27,-15.71,-15.85,0,*6B
1512101167.2,27747,4.13,72044.0,-14.27,-15.63,-15.85,0,*69
1512101168.44,27748,4.13,72042.8,-14.27,-15.71,-15.89,0,*69
1512101169.69,27749,4.13,72044.3,-14.27,-15.63,-15.89,0,*6B
1512101170.93,27750,4.13,72042.0,-14.27,-15.71,-15.89,0,*60
1512101172.18,27751,4.13,72042.5,-14.27,-15.63,-15.89,0,*62
1512101173.42,27752,4.13,72042.5,-14.27,-15.71,-15.89,0,*62
1512101174.67,27753,4.13,72042.8,-14.27,-15.63,-15.85,0,*6C
1512101175.92,27754,4.13,72042.5,-14.27,-15.63,-15.85,0,*6B
1512101177.16,27755,4.13,72042.0,-14.27,-15.63,-15.89,0,*66
1512101178.41,27756,4.13,72044.0,-14.27,-15.63,-15.85,0,*69
1512101179.68,27757,4.13,72046.3,-14.27,-15.57,-15.85,0,*6F
1512101180.95,27758,4.13,72046.3,-14.27,-15.57,-15.85,0,*60
1512101182.17,27759,4.13,72044.3,-14.27,-15.71,-15.99,0,*68
1512101183.46,27760,4.13,72044.3,-14.25,-15.57,-15.85,0,*69
1512101184.74,27761,4.13,72044.8,-14.25,-15.67,-15.85,0,*6B
1512101186.03,27762,4.13,72046.5,-14.25,-15.57,-15.85,0,*6B
1512101187.33,27763,4.13,72046.0,-14.25,-15.57,-15.89,0,*66
1512101188.6,27764,4.13,72042.8,-14.25,-15.57,-15.95,0,*6C
1512101189.85,27765,4.13,72042.8,-14.27,-15.71,-15.89,0,*66
1512101191.12,27766,4.13,72042.5,-14.25,-15.81,-15.95,0,*65
1512101192.39,27767,4.13,72044.8,-14.25,-15.81,-15.95,0,*64
1512101193.64,27768,4.13,72044.8,-14.25,-15.71,-15.95,0,*64
1512101194.94,27769,4.13,72046.8,-14.25,-15.81,-15.85,0,*6B
1512101196.19,27770,4.13,72046.3,-14.25,-15.67,-15.95,0,*6A
1512101197.43,27771,4.13,72048.3,-14.25,-15.67,-15.99,0,*67
1512101198.67,27772,4.13,72044.0,-14.25,-15.71,-15.99,0,*63
1512101199.95,27773,4.13,72050.5,-14.25,-15.57,-15.95,0,*6A
1512101201.24,27774,4.13,72048.3,-14.25,-15.57,-15.85,0,*6C
1512101202.55,27775,4.13,72046.5,-14.25,-15.43,-15.81,0,*6C
1512101203.8,27776,4.13,72046.3,-14.23,-15.53,-15.81,0,*68
1512101205.1,27777,4.13,72044.8,-14.25,-15.43,-15.85,0,*6A
1512101206.38,27778,4.13,72040.0,-14.25,-15.53,-15.81,0,*60
1512101207.63,27779,4.13,72042.3,-14.23,-15.53,-15.81,0,*67
1512101208.9,27780,4.13,72040.3,-14.25,-15.67,-15.85,0,*64
1512101210.13,27781,4.13,72046.5,-14.23,-15.67,-15.95,0,*62
1512101211.35,27782,4.13,72044.0,-14.23,-15.71,-15.99,0,*6A
1512101212.62,27783,4.13,72044.3,-14.25,-15.85,-15.99,0,*66
1512101213.84,27784,4.13,72042.3,-14.23,-15.95,-15.99,0,*66
1512101215.12,27785,4.06,72042.0,-14.25,-15.95,-16.09,0,*6B
1512101216.39,27786,4.13,72046.8,-14.25,-15.95,-16.13,0,*63
1512101217.67,27787,4.06,72042.3,-14.25,-15.95,-16.09,0,*69
1512101218.94,27788,4.13,72048.8,-14.23,-15.85,-16.13,0,*6A
1512101220.24,27789,4.13,72048.3,-14.25,-15.85,-16.13,0,*6D
1512101221.49,27790,4.13,72048.0,-14.23,-15.99,-16.17,0,*6A
1512101222.76,27791,4.13,72048.3,-14.25,-15.99,-16.13,0,*69
1512101224.02,27792,4.13,72044.0,-14.25,-15.99,-16.17,0,*6E
1512101225.29,27793,4.13,72046.0,-14.25,-15.99,-16.13,0,*6B
1512101226.53,27794,4.13,72044.8,-14.27,-15.99,-16.13,0,*6E
1512101227.78,27795,4.06,72042.0,-14.23,-15.85,-15.99,0,*67
1512101229.05,27796,4.13,72046.0,-14.25,-15.71,-15.85,0,*64
1512101230.3,27797,4.06,72042.0,-14.25,-15.67,-15.95,0,*63
1512101231.55,27798,4.13,72044.3,-14.25,-15.67,-15.95,0,*6C
1512101232.85,27799,4.13,72046.5,-14.25,-15.57,-15.85,0,*6F
1512101234.07,27800,4.13,72040.0,-14.23,-15.71,-15.99,0,*6F
1512101235.35,27801,4.13,72046.5,-14.23,-15.85,-16.09,0,*6F
1512101236.64,27802,4.13,72044.3,-14.25,-15.81,-16.09,0,*6E
1512101237.94,27803,4.13,72044.5,-14.25,-15.81,-16.09,0,*6F
1512101239.24,27804,4.13,72046.3,-14.25,-15.81,-16.09,0,*68
1512101240.47,27805,4.13,72044.8,-14.23,-15.95,-15.99,0,*60
1512101241.74,27806,4.13,72050.0,-14.25,-15.95,-16.13,0,*64
1512101243.01,27807,4.13,72044.3,-14.25,-15.95,-16.13,0,*65
1512101244.28,27808,4.13,72046.0,-14.25,-15.95,-16.13,0,*6A
1512101245.55,27809,4.13,72044.5,-14.25,-15.99,-16.13,0,*67
1512101246.81,27810,4.13,72044.5,-14.25,-15.99,-16.27,0,*68
1512101248.08,27811,4.13,72048.3,-14.25,-15.99,-16.17,0,*6A
1512101249.38,27812,4.13,72044.5,-14.25,-15.85,-16.13,0,*60
1512101250.63,27813,4.13,72044.0,-14.25,-15.95,-15.99,0,*61
1512101251.9,27814,4.13,72042.8,-14.25,-15.85,-15.99,0,*67
1512101253.2,27815,4.13,72042.8,-14.25,-15.85,-16.09,0,*6C
1512101254.5,27816,4.13,72042.0,-14.25,-15.81,-16.13,0,*60
1512101255.77,27817,4.13,72046.3,-14.25,-15.85,-15.99,0,*64
1512101257.04,27818,4.13,72044.0,-14.25,-15.71,-16.09,0,*6A
1512101258.31,27819,4.13,72044.3,-14.25,-15.81,-15.99,0,*6E
1512101259.56,27820,4.13,72044.3,-14.25,-15.67,-15.95,0,*60
1512101260.86,27821,4.13,72046.8,-14.25,-15.57,-15.85,0,*63
1512101262.13,27822,4.13,72048.3,-14.23,-15.57,-15.85,0,*66
1512101263.38,27823,4.13,72048.8,-14.25,-15.67,-15.95,0,*63
1512101264.65,27824,4.13,72044.0,-14.25,-15.67,-15.85,0,*65
1512101265.9,27825,4.13,72046.5,-14.25,-15.67,-15.95,0,*65
1512101267.17,27826,4.13,72048.8,-14.25,-15.81,-15.95,0,*6E
1512101268.42,27827,4.13,72046.3,-14.23,-15.85,-15.99,0,*61
1512101269.7,27828,4.13,72048.0,-14.25,-15.95,-16.09,0,*63
1512101270.97,27829,4.13,72046.8,-14.25,-15.95,-16.17,0,*6D
1512101272.25,27830,4.13,72048.8,-14.25,-15.95,-16.17,0,*65
1512101273.52,27831,4.13,72048.0,-14.25,-15.85,-15.99,0,*60
1512101274.82,27832,4.13,72050.8,-14.25,-15.85,-16.09,0,*69
1512101276.1,27833,4.13,72044.0,-14.25,-15.95,-16.17,0,*66
1512101277.35,27834,4.13,72044.3,-14.25,-15.95,-15.99,0,*64
1512101278.65,27835,4.13,72042.0,-14.25,-15.81,-16.09,0,*6A
1512101279.89,27836,4.13,72036.8,-14.25,-15.71,-15.99,0,*6C
1512101281.16,27837,4.13,72040.0,-14.25,-15.67,-15.85,0,*67
1512101282.41,27838,4.13,72044.3,-14.25,-15.71,-15.95,0,*6E
1512101283.71,27839,4.06,72040.3,-14.25,-15.81,-15.85,0,*61
1512101284.96,27840,4.13,72046.3,-14.23,-15.81,-15.95,0,*68
1512101286.18,27841,4.13,72048.5,-14.23,-15.71,-15.95,0,*66
1512101287.41,27842,4.13,72046.3,-14.23,-15.71,-15.95,0,*65
1512101288.68,27843,4.13,72044.3,-14.25,-15.81,-15.95,0,*6D
1512101289.93,27844,4.13,72046.5,-14.23,-15.81,-15.95,0,*6C
1512101291.18,27845,4.13,72044.3,-14.23,-15.81,-15.99,0,*61
1512101292.48,27846,4.13,72044.3,-14.25,-15.85,-16.09,0,*6A
1512101293.73,27847,4.13,72050.0,-14.23,-15.95,-16.09,0,*6C
1512101294.98,27848,4.13,72046.0,-14.23,-15.95,-16.13,0,*68
1512101296.23,27849,4.13,72048.5,-14.23,-15.99,-16.17,0,*61
1512101297.49,27850,4.13,72048.5,-14.25,-15.99,-16.17,0,*6F
1512101298.76,27851,4.13,72050.5,-14.25,-15.99,-16.27,0,*6D
1512101300.03,27852,4.13,72046.5,-14.25,-15.99,-16.17,0,*6D
1512101301.3,27853,4.13,72050.8,-14.25,-15.99,-16.17,0,*6C
1512101302.57,27854,4.13,72048.8,-14.25,-15.95,-16.13,0,*63
1512101303.87,27855,4.13,72048.5,-14.25,-15.85,-16.13,0,*63
1512101305.17,27856,4.13,72050.8,-14.25,-15.85,-16.09,0,*6B
1512101306.45,27857,4.13,72054.0,-14.25,-15.95,-16.09,0,*6B